Powrót do katalogu

STARLINK-37783

AktywnyŁącznośćSSO
NORAD 69438·PAYLOAD·🇺🇸 United States

Wystrzelony Jun 7, 2026 z Vandenberg Space Force Base

Loading…

Następne Przeloty (najbliższe 24 godziny)

TLE

ŚwieżeSource: CelesTrak SupGP

Epoka: Sep 15, 2026, 03:55 UTC

1 69438C 26126U   26258.16368056 -.00026195  00000+0 -81298-3 0  2588
2 69438  97.2849 119.4794 0002566  94.3775  24.8859 15.33456975    15

Śledź STARLINK-37783 w czasie rzeczywistym z AllMySat

Download on the App Store